• In Romania
  • List of Countries
  • For 7 days
  • Water Temperature
  • Satellite Maps
  • Weather Map
  • Weather Widgets
  • user-avatar
    Login

    Hourly Weather Kerns

    Today, 23 September, Sunday

    Time Temperature Precipitation Wind Pressure Humidity
    00:00 +21°C° 0.1 mm 6 mps 764 mmHg 87%
    01:00 +21°C° 0.1 mm 6 mps 763 mmHg 87%
    02:00 +21°C° 0.1 mm 6 mps 763 mmHg 88%
    03:00 +21°C° 0.1 mm 7 mps 763 mmHg 88%
    04:00 +21°C° 0 mm 6 mps 763 mmHg 89%
    05:00 +21°C° 0.1 mm 6 mps 763 mmHg 88%
    06:00 +21°C° 0.1 mm 6 mps 763 mmHg 87%
    07:00 +22°C° 0.1 mm 6 mps 763 mmHg 86%
    08:00 +23°C° 0.1 mm 7 mps 763 mmHg 77%
    09:00 +26°C° 0.1 mm 7 mps 763 mmHg 68%
    10:00 +28°C° 0 mm 7 mps 763 mmHg 58%
    11:00 +29°C° 0 mm 7 mps 763 mmHg 54%
    12:00 +30°C° 0 mm 7 mps 762 mmHg 50%
    13:00 +32°C° 0 mm 7 mps 762 mmHg 46%
    14:00 +30°C° 0 mm 7 mps 762 mmHg 48%
    15:00 +30°C° 0 mm 7 mps 762 mmHg 50%
    16:00 +28°C° 0 mm 7 mps 762 mmHg 56%
    17:00 +26°C° 0.1 mm 7 mps 762 mmHg 65%
    18:00 +24°C° 0.1 mm 6 mps 762 mmHg 73%
    19:00 +22°C° 0.1 mm 5 mps 762 mmHg 82%
    20:00 +22°C° 0.2 mm 5 mps 762 mmHg 86%
    21:00 +21°C° 0.2 mm 5 mps 763 mmHg 90%
    22:00 +21°C° 0.2 mm 5 mps 763 mmHg 94%
    23:00 +21°C° 0.2 mm 5 mps 763 mmHg 94%

    Tomorrow, 24 September, Monday

    Time Temperature Precipitation Wind Pressure Humidity
    00:00 +20°C° 0.2 mm 5 mps 762 mmHg 95%
    01:00 +20°C° 0.2 mm 5 mps 762 mmHg 95%
    02:00 +20°C° 0.2 mm 5 mps 762 mmHg 95%
    03:00 +20°C° 0.2 mm 5 mps 762 mmHg 95%
    04:00 +20°C° 0.2 mm 5 mps 761 mmHg 95%
    05:00 +20°C° 0.1 mm 5 mps 761 mmHg 93%
    06:00 +20°C° 0.1 mm 5 mps 762 mmHg 92%
    07:00 +21°C° 0.1 mm 5 mps 762 mmHg 90%
    08:00 +23°C° 0.1 mm 6 mps 762 mmHg 78%
    09:00 +26°C° 0.1 mm 6 mps 762 mmHg 65%
    10:00 +28°C° 0.1 mm 7 mps 762 mmHg 53%
    11:00 +29°C° 0 mm 7 mps 762 mmHg 49%
    12:00 +30°C° 0 mm 7 mps 761 mmHg 45%
    13:00 +32°C° 0 mm 7 mps 761 mmHg 41%
    14:00 +30°C° 0 mm 7 mps 760 mmHg 43%
    15:00 +30°C° 0 mm 7 mps 760 mmHg 45%
    16:00 +29°C° 0 mm 7 mps 760 mmHg 47%
    17:00 +27°C° 0 mm 6 mps 760 mmHg 57%
    18:00 +24°C° 0 mm 6 mps 761 mmHg 67%
    19:00 +22°C° 0 mm 6 mps 761 mmHg 77%
    20:00 +21°C° 0 mm 5 mps 761 mmHg 81%
    21:00 +21°C° 0 mm 5 mps 762 mmHg 86%
    22:00 +20°C° 0 mm 5 mps 762 mmHg 91%
    23:00 +20°C° 0.1 mm 5 mps 762 mmHg 92%

    Day after tomorrow, 25 September, Tuesday

    Time Temperature Precipitation Wind Pressure Humidity
    00:00 +20°C° 0.1 mm 5 mps 762 mmHg 92%
    01:00 +20°C° 0.1 mm 5 mps 761 mmHg 93%
    02:00 +20°C° 0.1 mm 5 mps 761 mmHg 93%
    03:00 +20°C° 0.1 mm 5 mps 761 mmHg 94%
    04:00 +20°C° 0.1 mm 5 mps 760 mmHg 94%
    05:00 +21°C° 0.1 mm 5 mps 761 mmHg 92%
    06:00 +21°C° 0.1 mm 5 mps 761 mmHg 91%
    07:00 +21°C° 0.1 mm 5 mps 761 mmHg 89%
    08:00 +23°C° 0 mm 6 mps 762 mmHg 77%
    09:00 +27°C° 0 mm 6 mps 762 mmHg 66%
    10:00 +29°C° 0 mm 6 mps 762 mmHg 54%
    11:00 +30°C° 0 mm 7 mps 762 mmHg 51%
    12:00 +30°C° 0 mm 7 mps 761 mmHg 47%
    13:00 +32°C° 0 mm 7 mps 760 mmHg 44%
    14:00 +32°C° 0 mm 7 mps 760 mmHg 45%
    15:00 +30°C° 0 mm 7 mps 760 mmHg 46%
    16:00 +30°C° 0 mm 7 mps 759 mmHg 48%
    17:00 +27°C° 0 mm 7 mps 760 mmHg 56%
    18:00 +24°C° 0 mm 7 mps 760 mmHg 65%
    19:00 +22°C° 0 mm 6 mps 761 mmHg 73%
    20:00 +22°C° 0 mm 6 mps 761 mmHg 78%
    21:00 +21°C° 0 mm 6 mps 762 mmHg 83%
    22:00 +21°C° 0 mm 6 mps 762 mmHg 88%
    23:00 +21°C° 0.1 mm 6 mps 762 mmHg 89%

    26 September, Wednesday

    Time Temperature Precipitation Wind Pressure Humidity
    00:00 +20°C° 0.1 mm 5 mps 762 mmHg 90%
    01:00 +20°C° 0.1 mm 5 mps 761 mmHg 91%
    02:00 +20°C° 0 mm 5 mps 761 mmHg 92%
    03:00 +20°C° 0 mm 5 mps 761 mmHg 93%
    04:00 +20°C° 0 mm 5 mps 760 mmHg 93%
    05:00 +20°C° 0 mm 6 mps 761 mmHg 91%
    06:00 +21°C° 0 mm 6 mps 761 mmHg 89%
    07:00 +21°C° 0 mm 6 mps 762 mmHg 87%
    08:00 +23°C° 0 mm 6 mps 762 mmHg 75%
    09:00 +27°C° 0 mm 6 mps 762 mmHg 62%
    10:00 +29°C° 0 mm 7 mps 762 mmHg 49%
    11:00 +30°C° 0 mm 7 mps 762 mmHg 46%
    12:00 +32°C° 0 mm 7 mps 761 mmHg 43%
    13:00 +33°C° 0 mm 7 mps 761 mmHg 40%
    14:00 +32°C° 0.1 mm 7 mps 760 mmHg 44%
    15:00 +30°C° 0.1 mm 6 mps 760 mmHg 47%
    16:00 +29°C° 0.1 mm 6 mps 759 mmHg 51%
    17:00 +27°C° 0.1 mm 6 mps 760 mmHg 61%
    18:00 +24°C° 0.1 mm 6 mps 761 mmHg 71%
    19:00 +22°C° 0.1 mm 5 mps 761 mmHg 82%
    20:00 +22°C° 0.2 mm 5 mps 762 mmHg 85%
    21:00 +21°C° 0.2 mm 5 mps 762 mmHg 89%
    22:00 +21°C° 0.2 mm 5 mps 763 mmHg 92%
    23:00 +21°C° 0.2 mm 5 mps 762 mmHg 93%

    27 September, Thursday

    Time Temperature Precipitation Wind Pressure Humidity
    00:00 +21°C° 0.2 mm 5 mps 762 mmHg 94%
    01:00 +21°C° 0.2 mm 5 mps 762 mmHg 95%
    02:00 +21°C° 0.2 mm 5 mps 761 mmHg 94%
    03:00 +21°C° 0.2 mm 5 mps 761 mmHg 93%
    04:00 +21°C° 0.2 mm 5 mps 761 mmHg 92%
    05:00 +21°C° 0 mm 5 mps 761 mmHg 91%
    06:00 +21°C° 0 mm 5 mps 762 mmHg 90%
    07:00 +22°C° 0 mm 5 mps 762 mmHg 89%
    08:00 +23°C° 0.2 mm 5 mps 762 mmHg 83%
    09:00 +25°C° 0.2 mm 5 mps 763 mmHg 77%
    10:00 +27°C° 0.2 mm 5 mps 763 mmHg 71%
    11:00 +27°C° 0.3 mm 5 mps 762 mmHg 70%
    12:00 +27°C° 0.3 mm 5 mps 762 mmHg 70%
    13:00 +27°C° 0.3 mm 5 mps 761 mmHg 69%
    14:00 +27°C° 0.3 mm 5 mps 761 mmHg 70%
    15:00 +27°C° 0.3 mm 5 mps 761 mmHg 71%
    16:00 +26°C° 0.3 mm 5 mps 760 mmHg 72%
    17:00 +25°C° 0.3 mm 5 mps 761 mmHg 78%
    18:00 +23°C° 0.3 mm 5 mps 761 mmHg 84%
    19:00 +22°C° 0.3 mm 5 mps 762 mmHg 90%
    20:00 +22°C° 0.2 mm 5 mps 762 mmHg 91%
    21:00 +21°C° 0.2 mm 5 mps 762 mmHg 93%
    22:00 +21°C° 0.2 mm 5 mps 763 mmHg 94%
    23:00 +21°C° 0.3 mm 4 mps 762 mmHg 94%

    28 September, Friday

    Time Temperature Precipitation Wind Pressure Humidity
    00:00 +21°C° 0.3 mm 4 mps 762 mmHg 94%
    01:00 +20°C° 0.3 mm 4 mps 761 mmHg 94%
    02:00 +20°C° 0.1 mm 4 mps 761 mmHg 95%
    03:00 +20°C° 0.1 mm 4 mps 761 mmHg 95%
    04:00 +20°C° 0.1 mm 4 mps 761 mmHg 95%
    05:00 +20°C° 0.1 mm 4 mps 761 mmHg 93%
    06:00 +21°C° 0.1 mm 5 mps 762 mmHg 92%
    07:00 +21°C° 0.1 mm 5 mps 762 mmHg 90%
    08:00 +23°C° 0.2 mm 5 mps 763 mmHg 82%
    09:00 +26°C° 0.2 mm 5 mps 763 mmHg 74%
    10:00 +27°C° 0.2 mm 6 mps 763 mmHg 65%
    11:00 +28°C° 0.1 mm 6 mps 762 mmHg 62%
    12:00 +28°C° 0.1 mm 6 mps 761 mmHg 60%
    13:00 +29°C° 0.1 mm 6 mps 761 mmHg 57%
    14:00 +29°C° 0 mm 6 mps 760 mmHg 55%
    15:00 +29°C° 0 mm 6 mps 760 mmHg 54%
    16:00 +29°C° 0 mm 6 mps 760 mmHg 53%
    17:00 +27°C° 0 mm 5 mps 760 mmHg 61%
    18:00 +25°C° 0 mm 5 mps 761 mmHg 70%
    19:00 +22°C° 0 mm 4 mps 761 mmHg 79%
    20:00 +21°C° 0.1 mm 4 mps 761 mmHg 83%
    21:00 +21°C° 0.1 mm 4 mps 762 mmHg 88%
    22:00 +20°C° 0.1 mm 4 mps 762 mmHg 92%
    23:00 +20°C° 0.1 mm 4 mps 761 mmHg 93%
    Show more